Location: Pine Mountain Observatory
(43.7910°N, 120.9377°W)
Time: 02:48:41
(UTC-07:00)

Vanguard 3 - Visible Passes

Search period start: 26 May 2019 00:00
Search period end: 05 June 2019 00:00
Orbit: 508 x 3263 km, 33.3° (Epoch: 25 May)

Date Brightness Start Highest point End Pass type
(mag) Time Alt. Az. Time Alt. Az. Time Alt. Az.
26 May 9.5 01:55:54 10° W 02:05:27 37° SSW 02:20:05 10° SE visible
26 May 10.5 04:10:24 10° WSW 04:19:20 19° SW 04:30:17 10° S visible
26 May 8.5 22:31:51 10° WSW 22:37:57 41° S 22:48:18 10° ESE visible
27 May 9.1 00:42:17 10° WSW 00:50:27 41° S 01:03:57 10° SE visible
27 May 10.0 02:54:43 10° WSW 03:04:01 26° SSW 03:16:51 10° SSE visible
27 May 8.4 21:19:23 10° SW 21:24:14 31° SSE 21:31:50 10° ESE visible
27 May 8.7 23:29:06 10° WSW 23:35:54 42° S 23:41:09 27° SE visible
28 May 9.6 01:40:21 10° WSW 01:56:26 21° SSE 02:01:52 10° SE visible
28 May 10.4 04:01:22 15° SW 04:02:31 15° SW 04:10:29 10° S visible
28 May 8.4 22:16:17 10° WSW 22:21:49 38° S 22:29:31 14° ESE visible
29 May 9.1 00:26:44 10° WSW 00:50:02 - SE 00:33:57 36° SSW visible
29 May 10.5 02:54:52 14° S 02:54:52 14° S 02:57:57 10° SSE visible
29 May 8.3 21:03:47 10° SW 21:08:12 30° SSE 21:14:57 10° ESE visible
29 May 8.7 23:13:35 10° WSW 23:19:44 37° S 23:22:58 30° SSE visible
30 May 9.8 01:24:58 10° WSW 01:47:38 - SE 01:27:26 18° WSW visible
30 May 8.3 22:00:46 10° WSW 22:05:47 35° S 22:12:13 15° ESE visible
31 May 9.1 00:11:18 10° WSW 00:16:43 29° SSW 00:16:43 29° SSW visible
31 May10.602:44:40SSE02:44:40SSE02:21:13WSWvisible
31 May 8.7 22:58:08 10° WSW 23:03:39 32° S 23:06:09 28° SSE visible
01 Jun 10.0 01:09:51 10° WSW 01:10:39 12° WSW 01:10:39 12° WSW visible
01 Jun 8.3 21:45:18 10° WSW 21:49:49 31° S 21:55:42 13° SE visible
01 Jun 9.2 23:56:02 10° WSW 00:00:12 24° SSW 00:00:12 24° SSW visible
02 Jun 8.7 22:42:48 10° WSW 22:47:37 27° S 22:49:50 24° SSE visible
03 Jun 8.3 21:29:53 10° WSW 21:33:55 27° S 21:39:31 11° SE visible
03 Jun 9.3 23:40:59 10° WSW 23:44:03 18° SSW 23:44:03 18° SSW visible
04 Jun 8.8 22:27:34 10° WSW 22:31:41 22° S 22:33:48 19° SSE visible
